Weather History for KFRG - October, 2013

Change the Weather History Date:

Thursday, October 24, 2013

  Actual Average Record
Temperature  
Mean Temperature 48 °F -  
Max Temperature 54 °F 58 °F 84 °F (1998)
Min Temperature 41 °F 43 °F 34 °F (2008)
Degree Days  
Heating Degree Days 18    
Moisture  
Dew Point 29 °F    
Average Humidity 52    
Maximum Humidity 76    
Minimum Humidity 32    
Precipitation  
Precipitation 0.00 in - - ()
Sea Level Pressure  
Sea Level Pressure 29.89 in    
Wind  
Wind Speed 9 mph (WNW)    
Max Wind Speed 20 mph    
Max Gust Speed 28 mph    
Visibility 10 miles    
Events      
Averages and records for this station are not official NWS values.
T = Trace of Precipitation, MM = Missing Value Source: NWS Daily Summary

Daily Weather History Graph

Daily Weather History Graph

Search for Another Location

Airport or City:

Trip Planner

Search our weather history database for the weather conditions in past years. The results will help you decide how hot, cold, wet, or windy it might be!

Date:

Astronomy

Oct. 24, 2013 Rise Set
Actual Time 7:15 AM EDT 5:59 PM EDT
Civil Twilight 6:47 AM EDT 6:27 PM EDT
Nautical Twilight 6:15 AM EDT 6:59 PM EDT
Astronomical Twilight 5:43 AM EDT 7:31 PM EDT
Moon 10:21 PM EDT (10/24) 12:14 PM EDT (10/24)
Length of Visible Light 11h 40m
Length of Day
10h 44m
Waning Gibbous, 71% of the Moon is Illuminated
Oct 24
Waning Gibbous
Oct 26
Last Quarter
Nov 3
New
Nov 10
First Quarter
Nov 17
Full

Hourly Weather History & Observations

Time (EDT) Temp. Windchill Dew Point Humidity Pressure Visibility Wind Dir Wind Speed Gust Speed Precip Events Conditions
12:53 AM 44.1 °F 40.1 °F 35.1 °F 71% 29.75 in 10.0 mi WNW 6.9 mph - N/A   Clear
1:53 AM 44.1 °F 40.1 °F 35.1 °F 71% 29.77 in 10.0 mi WNW 6.9 mph - N/A   Clear
2:53 AM 42.1 °F 39.2 °F 35.1 °F 76% 29.78 in 10.0 mi NW 4.6 mph - N/A   Partly Cloudy
3:53 AM 43.0 °F 37.7 °F 34.0 °F 71% 29.80 in 10.0 mi WNW 9.2 mph - N/A   Scattered Clouds
4:53 AM 42.1 °F 38.4 °F 33.1 °F 70% 29.83 in 10.0 mi WNW 5.8 mph - N/A   Clear
5:53 AM 41.0 °F 36.4 °F 33.1 °F 73% 29.85 in 10.0 mi WNW 6.9 mph - N/A   Clear
6:53 AM 41.0 °F 36.4 °F 33.1 °F 73% 29.88 in 10.0 mi WNW 6.9 mph - N/A   Clear
7:53 AM 41.0 °F 36.4 °F 33.1 °F 73% 29.90 in 10.0 mi WNW 6.9 mph - N/A   Clear
8:53 AM 44.1 °F 39.0 °F 33.1 °F 65% 29.92 in 10.0 mi West 9.2 mph - N/A   Clear
9:53 AM 46.9 °F - 30.9 °F 54% 29.92 in 10.0 mi West 11.5 mph 18.4 mph N/A   Clear
10:53 AM 48.9 °F - 27.0 °F 43% 29.92 in 10.0 mi WNW 10.4 mph 19.6 mph N/A   Clear
11:53 AM 52.0 °F - 25.0 °F 35% 29.91 in 10.0 mi WNW 9.2 mph 23.0 mph N/A   Clear
12:53 PM 52.0 °F - 27.0 °F 38% 29.89 in 10.0 mi West 10.4 mph 20.7 mph N/A   Clear
1:53 PM 53.1 °F - 27.0 °F 37% 29.87 in 10.0 mi West 13.8 mph 18.4 mph N/A   Scattered Clouds
2:53 PM 54.0 °F - 26.1 °F 34% 29.87 in 10.0 mi West 19.6 mph 25.3 mph N/A   Scattered Clouds
3:53 PM 52.0 °F - 23.0 °F 32% 29.88 in 10.0 mi West 19.6 mph 27.6 mph N/A   Mostly Cloudy
4:53 PM 53.1 °F - 24.1 °F 32% 29.88 in 10.0 mi West 11.5 mph - N/A   Mostly Cloudy
5:53 PM 51.1 °F - 24.1 °F 35% 29.91 in 10.0 mi NW 9.2 mph - N/A   Overcast
6:53 PM 48.9 °F - 26.1 °F 41% 29.94 in 10.0 mi WNW 5.8 mph - N/A   Scattered Clouds
7:53 PM 48.0 °F - 23.0 °F 37% 29.96 in 10.0 mi WNW 8.1 mph - N/A   Clear
8:53 PM 46.9 °F - 23.0 °F 39% 29.97 in 10.0 mi West 10.4 mph 16.1 mph N/A   Clear
9:53 PM 46.9 °F - 25.0 °F 42% 29.99 in 10.0 mi West 9.2 mph 17.3 mph N/A   Clear
10:53 PM 45.0 °F 39.3 °F 25.0 °F 46% 30.00 in 10.0 mi West 11.5 mph 17.3 mph N/A   Clear
11:53 PM 45.0 °F 40.6 °F 26.1 °F 48% 30.00 in 10.0 mi West 8.1 mph 18.4 mph N/A   Clear